User: anonymous   Login
Location: Unspecified
(42.1900°N, 71.3291°W)
Time: 03:19:29
(UTC-05:00)
Language:

Resurs 1-4 Rocket - Orbit

View from above orbital plane
View from above orbital plane
View from above satellite
View from above satellite

Ground track
Ground track

The orbit data is extracted from the following two-line orbital elements,

1 25400U 98043G   15025.53822438  .00000067  00000-0  46110-4 0  8609
2 25400 098.3653 356.8088 0009197 341.6594 018.4254 14.25296214860614
Epoch (UTC): 25 January 2015 12:55:02
Eccentricity: 0.0009197
inclination: 98.3653°
perigee height: 801 km
apogee height: 814 km
right ascension of ascending node: 356.8088°
argument of perigee: 341.6594°
revolutions per day: 14.25296214
mean anomaly at epoch: 18.4254°
orbit number at epoch: 86061

The dashed part of the orbit path shows where the satellite is in the earth's shadow,  

DLR